Location: Unspecified
(0.0000°N, 0.0000°E)
Time: 12:47:40
(UTC+00:00)

Envisat - Pass Details

Date: 07 December 2017
Orbit: 764 x 766 km, 98.2° (Epoch: 16 December)

Event Time Altitude Azimuth Distance (km) Brightness Sun altitude
Rises 20:37:23 0° 185° (S) 3,231 6.6 -37.6°
Reaches altitude 10° 20:39:52 10° 193° (SSW) 2,303 5.9 -38.2°
Enters shadow 20:41:14 17° 202° (SSW) 1,840 5.4 -38.4°
